Theta_e
312 312 312 312 312 312 312 312 311 312 311 311 312 312 312 313 314 317 320 322 323 323 323 323 323 324 324 324 325 325 325 325 326 325 324 322 322 323 323 324 325 326 325 325 325 325 324 325 325 322 321 323 323 322 322 321 319 318 317 316 316 315 314 314 311 304 299 300 301 301 301 300 298 298 297 296 295 295 294 294 294 294 293 293 292
312 312 312 312 312 312 312 312 312 312 312 311 311 311 311 311 312 314 317 319 320 320 321 321 322 322 322 322 324 324 325 325 325 325 324 322 322 323 324 323 324 326 327 327 327 326 326 326 324 321 323 324 323 322 321 319 318 318 317 316 315 315 314 314 311 303 299 301 302 301 302 300 299 299 298 296 295 295 294 294 294 293 293 293 292
311 311 311 311 312 312 312 312 312 312 312 311 311 311 311 311 311 312 312 313 315 317 318 319 320 320 321 322 323 324 324 325 325 324 323 323 322 323 324 323 324 325 326 326 326 325 326 326 323 322 324 324 322 321 320 319 319 319 317 316 315 314 313 313 308 302 299 301 301 302 301 300 299 298 297 295 295 294 294 293 293 293 293 292 292
311 311 311 311 311 311 311 312 312 312 312 312 311 311 311 310 310 310 311 311 313 314 315 318 320 320 321 322 323 324 325 324 324 324 323 322 322 323 324 324 324 326 326 326 325 325 324 323 323 323 323 322 321 321 320 320 319 318 316 316 315 313 312 309 303 299 300 301 301 301 301 299 297 296 296 295 294 294 294 294 294 293 293 293 292
311 311 311 311 311 310 310 310 311 312 312 312 312 311 311 310 310 310 310 311 311 312 315 317 319 320 320 322 323 323 324 323 323 323 322 321 321 322 323 324 325 326 326 326 326 325 325 323 323 323 322 322 322 320 319 319 318 317 316 317 315 311 308 303 299 298 300 301 301 301 299 298 296 296 295 295 294 294 294 294 294 293 293 293 292
311 311 311 311 311 311 310 310 310 311 311 312 312 312 311 310 310 310 310 310 310 311 313 315 318 320 321 322 323 323 323 323 323 322 322 321 321 322 323 324 325 325 325 326 326 325 325 325 324 323 322 322 323 321 319 319 318 318 318 318 314 308 302 299 297 299 300 300 300 299 298 297 296 295 295 294 294 294 294 294 294 293 293 293 292
311 311 311 311 311 311 311 310 310 310 310 311 311 312 312 312 311 310 309 309 310 310 312 313 315 317 319 321 322 322 322 322 322 322 322 322 322 322 323 324 324 325 325 326 326 325 325 324 324 324 323 323 323 321 319 319 319 318 318 316 312 304 298 297 298 299 299 299 298 298 297 296 295 295 294 293 294 294 294 294 294 293 292 292 292
311 311 310 310 311 311 311 311 311 310 310 310 310 311 312 312 312 311 310 309 309 309 310 311 312 313 316 319 320 320 321 321 321 322 322 323 323 323 324 324 324 325 325 325 325 325 325 324 323 323 323 323 321 320 319 318 318 319 316 313 309 302 297 297 298 299 298 298 297 297 296 296 295 295 294 294 296 296 295 294 294 293 292 291 291
311 310 310 310 310 310 310 311 311 311 310 310 310 310 311 312 312 312 311 310 309 309 309 310 313 315 317 318 319 320 320 321 321 322 323 323 324 324 324 325 325 325 325 326 325 325 325 324 323 322 321 321 320 320 319 318 319 319 315 310 306 300 297 297 298 298 297 297 296 296 295 296 296 294 295 297 298 296 295 294 294 293 291 291 290
311 311 311 311 310 311 310 310 310 310 310 310 310 310 310 312 312 312 311 310 309 309 309 310 312 314 315 316 317 319 320 321 321 322 323 323 324 325 325 325 325 324 324 325 326 326 324 324 323 321 320 320 319 319 319 318 319 316 311 307 303 299 297 298 298 297 297 297 296 295 295 297 297 296 298 299 297 295 295 294 293 292 291 291 290
311 311 311 311 311 311 311 310 310 310 310 310 310 310 310 311 312 312 311 310 309 309 309 310 311 312 314 316 317 318 319 320 321 322 323 324 324 324 324 324 324 324 324 324 325 324 323 322 322 321 320 320 319 318 318 317 314 312 308 304 299 297 297 298 298 297 297 297 296 295 296 298 298 297 298 298 297 296 295 293 291 291 290 290 290
311 311 311 311 311 311 311 310 310 310 310 310 310 310 309 310 311 312 311 311 310 309 309 309 310 312 315 316 317 319 319 320 321 322 323 323 323 323 323 323 323 323 323 323 323 323 321 321 322 321 319 318 317 316 315 313 310 309 307 301 296 296 296 297 298 297 297 297 296 296 297 298 298 298 298 298 297 296 294 292 291 290 289 289 289
311 311 311 311 311 311 311 310 310 310 310 310 310 310 310 310 310 311 311 311 310 309 309 309 310 312 315 317 317 318 319 320 322 322 322 322 322 322 322 322 322 322 322 322 322 321 321 321 320 319 317 316 315 314 312 310 309 308 306 299 295 295 295 295 295 295 296 295 294 296 298 297 298 298 297 296 295 295 294 293 290 289 289 289 289
311 310 310 311 310 310 310 310 310 310 310 310 310 310 310 310 310 311 311 311 310 309 309 309 309 310 313 316 317 318 319 320 321 321 321 321 321 321 320 320 320 320 320 321 320 320 320 319 318 316 315 315 314 312 311 309 309 308 304 298 295 294 295 294 292 293 295 294 293 296 298 296 296 296 295 295 295 295 295 293 290 289 288 288 288
310 310 310 310 310 310 310 310 310 310 310 310 310 310 309 309 310 310 310 311 310 309 309 308 308 308 310 312 314 315 316 318 320 320 320 320 320 320 320 320 320 319 319 319 318 317 318 318 317 315 315 315 313 311 310 309 309 306 301 296 294 294 294 293 292 293 295 294 293 296 297 296 296 296 295 296 296 296 296 294 290 289 288 288 288
310 310 310 310 310 310 309 310 310 309 309 309 309 309 309 309 310 310 310 310 310 309 309 308 309 310 312 313 314 314 314 315 316 318 319 319 319 319 319 320 319 318 317 316 316 316 318 318 317 316 315 315 314 312 309 308 308 305 299 295 295 294 294 293 292 293 294 293 293 294 295 296 297 297 297 298 298 298 297 294 291 289 288 288 289
310 310 310 310 310 310 309 309 309 309 309 309 309 309 309 309 309 309 310 310 309 309 309 309 310 312 313 314 316 317 316 316 316 317 318 319 319 319 319 318 318 317 316 315 315 316 317 317 317 316 315 314 314 312 310 308 307 303 297 294 294 294 294 294 292 292 292 292 292 293 296 297 297 298 299 300 300 300 298 295 291 289 288 289 289
310 310 310 310 310 309 310 309 309 309 309 309 309 309 309 309 309 309 309 309 309 308 308 308 309 311 312 313 315 316 317 318 318 318 318 319 319 318 317 317 316 316 315 314 314 315 315 315 314 314 313 312 312 312 310 308 305 301 296 294 294 294 294 294 293 291 291 292 293 294 296 297 298 299 300 300 300 300 299 295 292 290 290 290 290
310 310 310 310 310 309 309 309 309 309 309 309 309 309 309 309 309 309 309 309 309 308 308 307 307 308 310 312 313 314 315 316 316 317 317 317 316 316 315 314 314 314 313 313 313 313 312 312 312 311 311 310 310 310 310 308 304 299 295 294 294 294 294 294 293 291 291 292 293 295 296 297 299 300 300 300 300 300 299 296 293 292 291 290 290
309 310 309 310 310 309 309 310 309 309 309 309 309 309 309 309 309 309 309 309 309 309 308 307 307 307 308 309 311 312 313 314 314 314 314 314 313 312 312 311 311 311 310 310 310 310 310 309 309 309 308 308 308 308 308 307 304 298 294 294 294 294 294 293 292 291 290 291 292 294 296 298 299 300 300 300 300 299 298 296 295 293 292 291 290
309 310 309 309 309 309 309 309 309 309 309 309 309 309 309 309 309 309 309 310 310 309 308 307 307 307 307 307 308 309 310 311 312 312 311 310 310 310 310 309 309 308 308 307 308 308 309 308 307 306 306 306 307 307 307 306 303 299 295 293 293 293 293 292 291 290 290 290 292 294 297 299 300 300 300 300 299 299 298 296 295 293 292 291 290
309 309 309 309 309 309 309 309 309 309 309 309 309 309 309 309 309 309 310 310 310 310 310 309 308 307 306 306 306 306 306 307 308 309 309 309 308 308 308 308 307 307 307 307 308 308 308 307 306 305 304 305 306 307 307 305 302 299 296 293 292 292 292 291 290 289 289 290 292 295 298 299 300 300 300 299 299 298 296 295 294 293 292 291 288
309 309 309 309 309 309 309 309 309 309 309 309 309 309 309 309 309 309 310 310 310 309 309 309 309 307 306 305 305 305 305 305 305 306 306 306 306 307 307 307 306 306 306 306 307 307 306 305 304 303 303 304 305 306 306 305 301 298 295 292 291 291 291 290 289 289 289 290 292 295 297 299 300 300 299 298 297 296 294 293 293 292 291 289 287
309 309 309 309 309 309 309 309 308 308 309 309 309 309 309 309 309 309 309 309 309 309 309 309 308 307 307 306 306 306 305 305 305 304 304 304 304 305 305 305 305 305 305 305 304 304 303 302 302 301 301 302 303 303 303 303 300 296 293 292 290 291 291 290 289 289 289 290 292 295 297 299 300 299 298 296 295 294 293 293 292 291 290 288 286
309 309 309 309 309 309 309 309 309 309 309 309 309 308 308 308 309 309 309 309 309 309 309 309 308 308 308 307 307 307 306 305 305 305 305 305 304 304 304 304 304 304 304 303 302 302 301 301 300 300 300 300 301 301 301 301 299 295 292 291 290 290 290 290 289 288 288 289 290 294 297 299 298 297 296 295 294 294 293 292 291 290 288 287 285
309 309 309 309 308 308 308 308 308 308 309 309 308 308 308 308 308 308 308 308 308 309 309 309 309 308 308 307 307 307 306 306 305 305 305 304 304 304 304 304 304 304 304 303 302 301 301 300 300 300 300 300 300 300 299 297 295 293 291 290 289 289 289 289 288 288 288 288 289 292 296 297 296 295 295 295 294 293 292 291 289 288 288 286 284
308 308 308 308 308 308 308 308 308 308 308 308 308 308 308 308 308 308 307 307 307 307 307 307 307 307 307 307 306 306 305 305 304 304 304 304 303 303 303 303 303 304 303 303 302 301 300 299 298 298 298 299 299 298 296 293 291 290 290 289 289 289 289 289 288 288 287 287 287 290 294 296 295 295 295 294 292 291 290 289 289 288 288 286 284
308 308 308 308 308 307 307 307 307 307 307 307 307 307 307 306 306 306 306 305 305 305 305 305 305 304 305 305 305 304 304 304 303 303 303 303 302 302 302 302 301 301 301 301 300 299 299 297 296 295 295 295 295 295 293 291 290 289 289 289 289 289 288 288 288 288 287 287 286 288 292 294 295 294 293 292 291 290 289 289 288 288 287 285 283
307 307 307 307 307 307 306 306 306 306 306 306 305 305 305 305 305 304 304 304 303 303 303 302 302 302 302 302 302 302 302 301 301 301 301 301 301 301 301 300 300 299 299 298 298 298 297 296 295 294 293 292 292 292 291 290 290 289 289 288 288 288 288 287 288 287 287 287 286 287 289 292 292 292 291 290 289 289 288 288 288 287 286 284 283
306 306 306 306 306 305 305 305 305 305 304 304 304 304 303 303 303 303 303 302 302 302 301 301 301 300 300 299 299 299 299 299 299 299 298 299 299 298 298 298 298 298 297 297 297 296 296 295 295 294 293 292 292 291 291 290 290 289 289 288 288 288 287 287 287 287 287 286 286 286 287 288 289 288 288 289 289 288 287 287 286 285 284 283 283
306 306 305 305 305 305 304 304 304 304 303 303 303 302 302 302 302 301 301 301 300 300 300 300 300 299 299 299 298 298 298 298 297 297 297 297 297 296 296 296 295 295 295 295 294 294 293 293 293 292 292 291 291 291 290 290 290 289 289 289 289 288 288 287 287 286 286 285 285 285 286 286 286 286 286 287 287 286 285 285 284 284 283 283 282
305 305 305 305 304 304 304 303 303 303 302 302 302 301 301 300 300 300 299 299 299 299 299 298 298 298 298 298 297 297 297 296 297 296 296 296 296 296 295 295 294 293 293 293 292 291 290 290 290 289 289 289 289 288 288 288 288 288 288 287 287 287 287 286 285 285 284 284 284 284 285 285 285 285 285 285 285 284 284 283 283 282 282 281 281
305 305 304 304 303 303 303 302 302 301 300 300 299 298 298 297 297 297 296 296 296 296 296 296 295 295 295 295 294 294 294 294 294 294 294 294 294 294 294 293 293 292 292 292 291 291 290 289 289 288 288 288 287 287 287 287 287 286 286 286 286 286 285 285 284 284 284 284 284 284 284 283 283 283 283 283 283 283 282 282 281 281 280 280 280
304 304 303 303 302 302 301 300 299 298 297 297 296 296 295 295 294 294 294 294 294 294 294 293 293 293 293 293 293 293 293 293 293 293 293 293 293 293 293 293 292 292 292 292 292 291 291 291 290 290 289 289 288 288 288 288 287 287 287 286 286 285 285 285 285 284 284 284 284 284 283 283 283 283 282 282 282 281 281 281 280 280 279 279 279
302 302 301 300 299 299 298 297 297 296 296 295 295 295 295 294 294 294 294 293 293 293 293 292 292 292 292 292 292 292 291 291 291 291 291 291 291 291 291 291 291 291 291 291 291 291 291 291 291 290 290 289 289 288 288 288 287 287 286 286 285 285 284 284 284 284 283 283 283 283 283 282 282 282 281 281 281 280 280 280 279 279 278 278 278
299 299 298 297 297 297 296 296 296 296 296 295 295 294 294 294 293 293 292 292 291 291 291 290 290 290 290 289 289 289 289 289 288 288 288 288 288 288 289 289 289 289 289 290 290 290 290 290 290 290 289 289 289 288 288 287 287 286 285 284 284 284 283 283 283 283 282 282 282 282 282 281 281 281 280 280 280 280 279 279 278 278 277 277 277
297 296 296 296 296 296 296 295 295 295 294 294 293 292 292 291 291 290 290 289 289 288 288 288 288 287 287 287 287 287 287 287 287 287 287 287 287 287 287 287 287 287 287 287 288 288 288 289 288 288 288 288 288 288 287 287 286 285 284 283 282 282 282 282 281 281 281 281 281 281 281 281 280 280 280 280 280 279 279 279 278 277 277 276 276
296 296 295 295 295 294 294 293 293 292 292 291 291 290 290 289 288 288 288 287 287 287 287 287 286 286 286 286 286 286 286 286 286 286 286 286 286 285 285 285 285 285 286 286 286 286 287 287 287 287 287 286 286 285 285 284 283 282 282 281 281 280 280 280 280 280 280 280 280 280 280 279 279 279 279 279 279 279 279 278 277 277 276 276 276
295 295 294 293 293 292 291 291 290 290 290 289 289 288 288 287 287 287 287 286 286 286 286 286 286 286 286 286 286 286 286 286 286 286 285 285 285 285 285 285 285 285 285 285 285 285 285 285 285 285 285 284 284 283 282 281 281 280 280 280 279 279 279 279 279 279 279 279 279 279 278 278 278 278 278 278 278 278 278 277 276 276 275 275 275
293 292 292 291 290 290 289 289 289 288 288 287 287 287 287 287 286 286 286 286 286 286 286 286 286 286 286 286 286 286 286 286 286 286 285 285 285 285 284 284 284 284 284 284 284 284 284 284 284 284 284 284 283 283 282 281 281 280 280 280 280 279 279 279 279 279 279 279 279 278 278 277 277 277 277 278 278 278 277 276 275 275 274 274 274
291 290 290 289 289 288 288 288 287 287 287 287 287 286 286 286 286 286 286 286 286 286 286 286 286 285 285 285 285 285 285 285 285 285 285 285 284 284 284 284 283 283 283 283 283 283 283 283 283 283 283 283 282 282 282 282 281 281 281 280 280 280 280 280 280 279 279 279 278 277 277 276 276 276 276 277 277 277 276 275 275 274 274 274 274
289 289 288 288 287 287 287 287 287 286 286 286 286 286 286 286 286 286 286 286 285 285 285 285 285 285 285 285 285 285 285 285 284 284 284 284 283 283 283 283 283 282 282 282 282 282 282 282 282 282 282 282 281 281 281 281 281 281 281 280 280 280 280 280 279 279 279 278 278 277 276 276 275 275 275 276 276 276 275 275 274 274 273 273 273
287 287 287 287 286 286 286 286 286 286 286 286 286 286 286 285 285 285 285 285 285 285 285 285 285 285 285 285 285 285 284 284 284 284 283 283 283 282 282 282 282 281 281 281 281 281 281 281 281 280 280 280 280 280 280 280 280 280 280 280 280 280 280 279 279 278 278 278 278 277 277 276 275 275 275 275 275 275 275 274 274 273 273 273 273
286 286 286 286 286 286 286 286 286 286 285 285 285 285 285 285 285 285 285 285 285 285 285 285 285 285 285 285 285 284 284 284 284 283 283 282 282 281 281 281 281 281 280 280 280 280 280 280 280 280 279 279 279 279 279 279 279 279 279 279 279 279 279 279 278 278 278 277 277 277 276 275 275 275 275 275 275 275 274 274 273 273 272 272 272
286 286 286 285 285 285 285 285 285 285 285 285 285 285 285 285 285 285 285 285 285 285 285 285 285 285 285 285 284 284 284 283 283 282 282 281 281 281 280 280 280 280 280 279 279 279 279 279 279 279 279 278 278 278 278 278 279 279 279 279 278 278 278 278 277 277 277 277 276 276 275 275 275 274 274 275 275 274 273 273 273 272 272 272 272
285 285 285 285 285 285 285 285 285 285 285 285 285 285 285 285 285 285 285 285 285 285 285 285 285 285 284 284 284 284 283 283 282 282 281 280 280 280 279 279 279 279 279 278 278 278 278 278 278 278 278 278 278 278 278 278 278 278 278 278 278 277 277 277 277 277 276 276 275 275 274 274 274 274 274 274 274 273 273 272 272 272 271 271 271
285 285 285 285 285 285 285 285 284 285 285 285 285 285 285 285 285 285 285 285 285 285 285 284 284 284 284 283 283 283 283 282 281 281 280 280 279 279 279 278 278 278 278 277 277 277 277 277 277 277 277 277 277 277 277 277 277 277 277 277 277 277 277 277 276 276 275 275 275 274 274 274 273 273 273 273 273 273 272 272 271 271 271 271 271
285 285 285 285 285 285 285 285 285 285 285 285 285 285 285 285 285 285 285 284 284 284 284 284 283 283 283 283 282 282 282 281 281 280 280 279 279 278 278 278 277 277 277 277 276 276 276 276 276 276 276 276 276 276 276 276 276 276 276 276 276 276 276 276 276 275 275 274 274 274 273 273 273 273 273 273 272 272 271 271 271 270 270 270 270
285 285 285 285 285 285 285 285 285 285 285 285 284 284 284 284 284 284 284 284 284 283 283 283 283 282 282 282 282 281 281 280 280 279 279 278 278 278 277 277 277 276 276 276 276 275 275 275 275 275 275 275 275 275 275 275 275 275 275 275 275 275 275 275 275 274 274 274 273 273 273 273 273 272 272 272 271 271 270 270 270 270 270 270 270
285 285 285 285 285 285 285 285 285 285 284 284 284 284 284 284 284 283 283 283 283 283 282 282 282 282 281 281 281 280 280 279 279 278 278 278 277 277 277 276 276 276 276 275 275 275 275 275 275 275 275 275 275 275 275 275 275 275 275 274 274 274 274 274 274 274 273 273 273 272 272 272 272 272 272 271 271 270 270 270 270 270 270 270 270
285 285 285 285 285 285 284 284 284 284 284 284 284 284 283 283 283 283 282 282 282 282 281 281 281 281 280 280 280 279 279 278 278 278 277 277 277 276 276 276 276 275 275 275 275 275 275 275 275 275 275 275 275 275 274 274 274 274 274 274 273 273 273 273 273 273 273 273 272 272 272 272 272 272 271 271 270 270 270 270 270 270 269 269 270
Wind_Speed
11 12 13 14 16 16 17 18 20 21 24 26 28 30 31 33 34 35 35 36 36 36 37 37 38 38 39 39 38 38 38 38 38 37 37 37 39 42 43 44 48 50 47 44 44 43 43 43 42 40 40 38 38 39 38 34 35 36 34 31 31 33 33 34 35 31 28 28 26 24 24 23 23 21 20 19 18 17 15 14 15 15 16 17 17
9 11 12 13 14 14 15 16 17 19 20 22 24 25 27 29 31 32 34 35 35 35 35 35 35 36 36 36 36 37 37 37 36 35 35 35 36 40 43 44 47 49 47 46 46 45 44 43 42 42 41 38 37 38 36 36 38 37 33 32 33 34 34 35 36 35 32 30 28 26 26 26 25 22 21 20 18 17 15 14 15 15 16 17 17
10 11 12 13 14 14 15 15 16 17 18 20 21 22 23 25 27 29 31 32 33 34 33 33 32 32 33 33 34 35 35 34 34 34 33 33 35 39 43 44 45 47 47 46 46 45 44 45 43 41 39 37 36 37 36 37 38 36 34 33 34 35 34 35 37 37 34 32 30 29 28 27 25 23 21 20 18 16 15 14 14 15 17 17 17
11 12 13 14 15 16 16 16 16 17 17 18 19 19 21 22 23 26 28 30 31 32 31 30 29 30 31 31 32 33 33 32 32 33 32 32 33 37 41 44 45 45 46 44 43 44 44 43 42 40 38 37 37 36 36 38 38 36 35 33 34 35 35 36 38 37 34 33 32 30 28 26 25 23 22 20 18 17 15 15 15 15 17 18 18
11 12 13 14 15 16 16 16 17 17 17 18 19 19 20 20 21 23 25 27 28 29 29 29 29 30 30 30 31 31 31 31 31 32 33 32 32 34 38 42 44 47 48 44 40 40 41 40 39 39 39 41 41 37 35 38 38 36 35 33 34 37 37 38 39 37 35 34 31 30 28 27 25 24 21 20 18 17 16 16 16 16 17 18 19
12 13 14 14 15 15 15 16 17 18 18 18 19 19 19 20 21 21 23 25 26 27 29 29 29 29 28 29 30 30 30 31 32 32 31 30 31 33 37 40 42 46 50 48 41 36 37 39 39 38 39 42 42 37 35 38 39 37 36 35 36 40 40 40 40 37 36 34 32 30 29 26 25 23 21 20 19 18 17 17 17 17 17 18 19
15 15 16 16 16 16 16 16 17 18 19 19 19 19 19 19 20 20 21 22 24 26 27 29 30 30 29 29 30 30 30 31 32 31 29 28 29 31 34 38 41 44 48 50 45 38 34 35 37 39 41 43 40 34 34 38 39 37 37 37 39 43 42 42 41 38 37 35 34 32 29 26 24 22 21 20 20 20 19 18 18 17 17 18 19
17 18 18 18 18 18 18 18 18 18 19 19 19 19 19 19 19 19 20 20 22 23 24 25 25 24 25 27 28 28 29 29 29 28 27 26 28 29 31 35 38 41 45 46 44 42 38 33 31 35 39 40 37 35 35 37 38 38 37 37 42 45 44 43 41 39 38 36 35 32 28 26 25 23 22 22 22 21 20 20 19 18 18 18 19
19 20 20 20 20 20 20 19 19 19 19 20 20 20 20 20 20 19 19 19 20 20 20 20 20 20 22 24 25 25 27 28 27 26 26 26 26 27 29 32 35 39 44 42 40 44 46 37 29 29 33 35 37 37 36 37 39 40 37 40 44 45 44 43 41 40 38 36 34 31 28 27 25 24 24 23 21 20 21 21 21 19 19 18 19
19 20 21 22 22 22 21 21 21 20 20 21 21 21 21 21 21 20 19 18 18 18 18 18 19 20 22 22 23 24 25 26 25 25 25 25 25 26 28 31 33 37 43 43 41 47 49 41 32 30 31 33 36 37 38 40 40 38 37 41 44 44 44 42 41 40 38 36 34 31 30 28 26 24 24 22 21 21 22 22 21 20 21 20 19
18 19 21 22 23 23 22 22 22 21 21 21 22 22 22 21 21 20 19 18 18 18 18 18 17 18 19 19 21 22 22 23 23 23 23 23 24 26 27 29 31 34 38 39 41 47 47 39 33 32 32 34 37 38 39 39 36 35 38 41 42 42 42 41 40 39 37 36 33 31 30 29 26 24 24 22 22 23 22 22 22 21 21 22 22
16 18 19 20 22 22 21 21 21 22 22 22 22 22 22 22 21 21 19 18 18 18 18 17 16 15 17 18 19 20 20 21 21 22 22 23 24 25 26 29 31 33 37 37 39 43 41 34 30 32 33 35 37 37 36 34 33 36 39 40 41 41 40 39 38 37 35 35 33 32 31 28 26 24 24 23 22 22 22 23 23 23 22 23 23
15 16 17 19 19 20 20 19 20 21 21 22 22 22 22 22 21 21 20 19 18 18 18 17 15 15 16 17 18 19 19 20 20 21 22 22 23 24 26 29 30 32 35 37 39 41 38 30 28 30 32 34 35 34 33 33 34 37 40 41 41 41 39 37 36 34 32 32 33 32 29 26 24 23 21 21 21 21 23 24 23 24 24 24 25
14 15 16 17 18 18 18 18 18 19 20 21 21 21 21 21 21 20 20 19 18 18 17 17 16 15 16 17 18 18 18 19 19 19 21 23 23 23 24 26 28 30 32 34 38 40 37 28 26 27 28 30 31 31 32 34 36 39 40 42 42 41 39 38 37 36 34 33 33 32 28 26 24 22 20 21 22 22 24 24 24 26 27 26 26
13 14 14 15 16 16 17 17 17 17 18 19 19 20 20 20 20 19 19 19 18 17 17 16 14 13 14 15 17 18 18 19 19 18 19 21 23 24 25 26 27 29 31 33 36 36 33 26 25 24 25 27 28 29 31 35 38 40 41 43 43 42 41 39 38 38 37 36 33 31 29 27 25 23 21 21 23 24 25 25 26 27 28 28 28
12 13 14 14 14 15 15 15 15 15 16 16 17 18 18 19 19 19 18 18 18 16 15 14 11 10 11 13 14 15 16 18 21 20 19 19 20 21 23 25 26 26 28 31 32 32 30 27 27 26 27 28 28 28 30 34 39 42 43 44 44 43 42 40 39 39 37 34 32 30 28 27 25 23 22 23 24 25 25 26 27 28 28 30 31
11 12 12 13 13 13 13 13 13 13 14 14 15 15 16 16 17 17 17 17 17 16 14 13 11 10 11 12 13 13 13 14 16 18 19 20 20 20 20 20 20 20 22 26 29 31 32 30 28 28 29 30 29 28 29 34 39 42 43 44 44 43 42 41 40 38 35 33 32 31 30 28 25 23 23 24 25 26 26 27 27 28 30 32 33
10 10 11 11 11 11 11 11 11 11 12 12 13 13 14 14 14 15 16 15 15 15 15 14 12 12 12 13 14 14 13 13 13 13 14 15 16 17 17 17 17 19 23 26 29 31 31 29 29 30 31 32 32 31 30 33 38 42 43 44 44 44 43 42 40 38 35 35 34 32 30 27 24 24 25 26 27 28 28 28 29 30 33 34 33
8 8 9 9 10 10 10 9 9 9 9 10 10 11 11 12 12 13 13 14 13 14 14 14 13 13 13 14 14 14 14 14 15 14 13 13 13 14 14 15 17 19 22 24 26 27 28 28 30 32 33 34 34 32 30 32 37 41 43 44 45 45 43 42 40 37 36 35 34 31 28 26 25 26 27 28 29 29 29 30 31 32 34 34 33
8 7 8 8 8 9 8 8 8 8 8 8 9 9 9 10 11 11 11 12 12 12 12 12 13 13 14 14 14 14 14 14 14 14 14 13 14 14 14 15 16 18 19 21 23 25 27 29 30 32 33 33 32 30 29 31 36 40 42 44 45 44 42 39 37 36 34 33 31 29 27 27 28 28 29 29 30 30 30 31 32 33 35 35 34
8 8 8 8 8 8 7 7 8 8 8 9 9 9 9 9 10 10 10 11 11 11 12 12 13 13 13 14 15 15 16 16 16 15 15 15 15 16 17 18 18 20 21 24 26 27 29 30 29 29 30 29 27 26 28 30 34 38 41 42 43 41 39 36 35 34 33 32 31 30 30 30 30 30 30 30 30 30 31 31 31 33 36 36 34
8 8 8 8 8 8 7 7 7 7 8 9 8 9 9 9 9 9 10 10 11 11 12 12 12 12 11 12 14 15 16 17 18 19 19 19 19 20 21 23 23 25 27 28 30 30 30 28 27 26 26 25 23 23 26 29 32 36 38 39 40 39 36 34 33 33 33 33 33 33 33 32 31 31 32 31 29 30 30 30 32 35 37 36 33
8 8 8 8 8 8 7 7 7 7 8 8 8 9 9 9 10 9 10 10 11 11 12 12 12 11 11 11 12 14 16 17 19 21 22 23 24 25 26 27 28 28 29 29 29 28 27 25 24 24 24 23 21 21 24 26 30 33 35 36 37 36 34 33 33 34 35 37 37 37 35 33 32 33 32 30 28 28 28 30 33 36 37 36 33
9 9 9 9 8 8 8 8 8 8 8 8 9 9 9 10 10 10 10 10 11 11 11 12 12 13 12 12 13 13 14 15 17 19 20 22 23 24 25 25 25 25 25 25 24 24 23 23 23 22 22 22 20 20 21 23 27 30 32 33 34 34 34 35 36 37 38 39 39 38 36 34 34 33 31 29 28 28 29 32 35 37 37 35 33
9 9 9 9 9 9 9 10 10 9 9 9 9 9 9 10 10 10 10 10 11 11 11 12 12 13 14 14 14 14 13 13 14 15 16 16 17 18 18 18 18 18 18 18 18 18 19 19 20 20 19 20 20 20 20 22 24 27 29 31 33 35 36 37 38 39 40 41 40 39 36 34 33 32 30 30 30 30 32 34 36 37 37 35 33
9 9 9 10 10 10 10 10 11 11 10 10 9 9 9 9 9 10 10 10 10 11 11 12 13 13 13 14 14 14 14 13 13 13 13 13 13 14 14 14 15 15 15 15 15 15 15 16 16 17 17 19 20 19 19 21 23 27 29 32 34 36 38 38 39 40 41 42 41 38 36 34 34 33 33 33 32 32 33 35 36 36 36 35 34
8 8 9 10 10 10 11 10 11 11 11 10 10 10 10 9 9 10 10 10 10 11 11 12 12 12 13 13 14 14 14 13 13 13 12 12 13 13 14 14 15 16 16 16 15 15 15 15 15 16 17 18 19 19 20 21 23 26 30 33 36 38 38 38 39 41 41 41 40 38 36 36 36 36 36 35 34 33 34 35 36 35 35 35 35
7 7 8 9 9 9 10 10 9 9 10 10 10 9 9 9 9 9 9 10 10 11 11 11 12 12 12 13 13 14 14 14 15 15 15 15 15 15 15 15 15 16 16 16 15 15 15 15 15 16 17 17 18 20 21 22 23 25 29 32 35 38 39 39 40 41 41 41 40 39 39 39 38 37 36 35 35 35 35 36 35 34 34 35 36
5 5 6 7 7 7 8 8 8 8 8 8 9 8 8 8 9 9 9 9 9 10 10 11 11 12 12 13 13 13 13 14 14 15 16 16 17 17 17 17 17 17 16 16 16 16 16 16 16 17 17 18 19 20 21 23 25 26 28 30 33 35 37 38 40 41 41 41 41 42 41 41 39 37 36 37 37 36 36 37 36 34 35 36 37
3 3 4 5 5 5 5 5 6 6 6 7 7 7 8 8 9 9 9 9 10 10 10 10 11 11 12 12 12 12 12 12 12 13 13 14 15 16 16 17 17 17 18 18 18 18 18 18 18 18 18 19 19 20 21 22 24 26 28 30 32 33 35 36 38 39 41 42 43 43 43 41 40 39 40 41 41 39 38 38 36 35 35 37 38
2 2 2 2 2 3 3 3 3 4 5 6 6 7 8 8 9 9 9 9 9 9 10 10 10 11 11 11 11 12 12 12 12 12 12 13 13 13 14 14 14 15 16 16 17 17 17 17 17 17 18 18 19 19 20 21 23 24 26 28 30 32 34 35 36 36 38 40 42 43 43 42 41 42 42 42 41 40 40 39 37 36 37 37 38
3 2 1 1 1 1 2 2 3 4 5 6 6 7 7 8 8 8 9 9 9 9 9 10 10 11 11 11 11 11 12 12 12 12 12 12 12 12 12 12 12 13 13 13 14 15 15 15 16 16 16 17 18 18 19 20 22 23 25 27 29 30 32 33 34 35 36 38 39 40 41 41 41 41 40 40 40 40 40 39 38 38 38 37 38
4 4 4 4 4 4 4 4 5 5 6 6 7 7 7 7 7 8 8 8 8 9 9 9 10 10 11 11 11 12 12 12 13 13 13 14 14 13 13 13 13 13 13 13 14 14 14 15 16 16 17 18 18 19 20 20 21 23 24 26 27 28 29 31 32 33 34 35 36 38 38 39 39 39 39 40 40 39 38 38 38 38 37 37 36
6 7 7 7 6 6 6 6 7 7 7 7 7 7 7 7 7 7 7 7 7 8 8 8 9 9 10 10 11 12 12 13 13 14 15 15 16 16 16 15 15 15 15 14 14 14 14 14 15 15 16 17 17 18 19 19 20 21 22 23 24 25 26 27 28 29 30 31 32 33 34 34 35 35 36 36 36 36 36 36 36 36 36 35 35
9 9 9 9 9 9 8 8 7 7 7 6 6 6 6 6 6 7 7 7 7 8 8 9 9 9 10 11 11 12 12 13 14 14 15 16 17 17 17 17 17 16 16 17 16 16 16 16 16 16 17 17 18 19 19 20 20 21 21 22 22 23 24 25 26 26 27 27 28 29 30 31 32 32 33 33 33 34 34 34 34 34 34 34 33
11 11 11 11 10 10 9 8 8 7 6 5 4 4 4 5 5 6 7 8 8 9 10 10 11 11 11 12 12 13 13 14 14 15 16 17 17 18 18 19 19 18 18 18 19 19 19 20 20 20 21 21 22 22 22 23 23 23 23 23 24 24 25 25 26 26 26 27 28 29 29 30 30 30 30 31 31 32 32 32 32 32 32 32 32
13 12 12 11 10 9 9 8 7 6 5 4 4 3 3 4 5 5 7 7 8 9 10 10 11 12 12 12 13 14 15 15 16 17 17 18 19 20 20 21 21 21 21 21 21 21 22 22 22 23 23 24 24 25 25 26 26 26 26 26 26 27 27 27 27 28 28 29 30 30 31 31 30 30 29 30 31 30 30 30 30 30 30 30 31
13 12 11 10 9 8 8 7 7 6 5 5 4 4 3 3 4 5 6 7 8 9 10 11 12 13 14 15 16 16 17 18 18 18 19 20 21 21 22 22 22 23 23 22 22 23 23 23 23 24 24 24 25 25 25 26 26 27 27 27 27 28 28 28 29 29 30 31 31 32 32 32 32 31 30 31 31 30 29 29 29 29 29 29 30
13 12 10 9 8 7 7 6 6 5 5 4 4 4 3 3 3 4 6 7 9 11 12 14 15 17 18 19 20 20 21 21 22 23 23 23 24 24 25 25 25 25 25 25 24 24 25 25 25 25 25 25 25 25 26 27 27 27 28 28 29 29 29 29 29 29 30 31 31 32 32 33 32 31 31 30 30 29 28 28 29 28 28 28 28
12 11 10 9 8 7 6 6 5 5 4 4 3 3 2 3 4 6 7 9 12 13 15 17 18 20 21 22 23 24 24 25 25 26 26 26 27 27 27 27 27 27 27 27 27 27 27 26 26 26 27 27 27 27 28 28 29 29 29 28 29 29 28 28 28 29 29 30 30 30 31 31 31 30 30 30 29 28 27 27 27 27 26 27 27
11 10 9 9 8 7 6 5 4 3 2 2 2 2 3 5 6 8 10 12 14 16 17 19 20 22 23 24 24 25 25 26 26 26 27 27 27 27 27 27 28 28 28 28 27 27 27 27 27 27 28 28 28 28 29 29 29 29 29 28 27 27 27 27 27 27 28 29 29 29 29 29 28 28 28 28 27 26 26 25 25 24 25 25 25
11 10 9 8 7 6 4 3 2 1 1 2 3 5 6 8 9 11 12 14 15 17 18 20 21 22 23 24 24 25 25 26 26 26 26 26 26 26 27 27 27 27 27 28 28 28 28 27 27 27 27 27 28 28 29 29 29 28 28 27 27 26 26 26 26 26 27 27 28 28 28 27 26 26 26 26 26 25 25 23 22 22 22 23 23
10 9 8 6 5 3 2 1 1 3 4 5 6 7 8 9 10 12 13 15 16 18 19 20 21 22 23 23 24 25 25 26 26 26 26 26 26 26 26 26 26 26 27 27 27 27 27 27 27 27 26 27 27 27 28 28 28 28 27 27 26 27 27 27 27 27 27 27 28 28 27 26 26 25 25 25 24 24 22 21 20 20 20 21 22
9 7 5 4 2 1 2 3 4 6 7 8 8 9 10 11 12 14 15 16 17 19 19 20 21 22 23 23 24 25 25 26 26 27 27 27 26 26 26 26 26 26 26 26 26 26 27 27 27 27 26 26 25 26 26 26 26 26 25 25 26 27 27 27 27 26 26 26 26 26 25 25 25 24 24 24 23 21 19 17 17 18 19 20 20
6 5 3 1 2 3 5 6 7 8 8 9 10 11 12 13 14 16 17 18 18 19 20 21 22 23 24 24 25 25 26 26 26 26 26 26 26 26 26 26 26 26 26 26 26 26 26 26 26 26 26 25 24 24 24 24 24 24 24 24 25 26 26 25 25 24 24 24 24 23 23 23 23 23 22 21 20 18 16 15 15 16 18 18 18
3 2 2 3 4 5 6 7 8 9 10 11 13 14 14 15 16 17 18 19 20 20 21 22 23 24 24 25 25 25 25 25 25 25 25 25 25 25 25 25 25 25 25 25 25 25 25 25 25 25 24 23 22 22 21 21 22 22 23 23 24 25 25 24 24 23 22 22 21 21 21 21 22 21 20 19 18 16 15 14 15 16 16 17 17
1 2 3 4 5 7 8 8 9 10 12 13 14 15 16 17 18 18 19 20 20 21 22 22 23 23 24 24 25 25 25 24 24 24 24 24 23 24 24 23 23 23 23 22 22 23 23 23 22 22 22 22 21 21 20 20 21 22 22 23 24 24 24 23 22 21 20 20 20 20 20 20 19 19 18 17 16 15 15 15 15 16 16 16 17
2 4 5 6 7 8 9 10 11 12 13 14 15 16 17 18 19 19 20 21 21 22 22 22 22 23 23 23 24 24 23 23 23 22 22 22 22 21 21 21 21 20 20 19 19 20 20 20 21 21 21 21 21 21 21 21 21 21 21 22 22 23 23 22 20 19 18 18 18 18 18 18 18 17 16 15 15 15 15 15 15 15 16 16 16
4 5 6 7 8 10 11 12 13 13 14 15 16 17 18 19 20 21 21 21 22 22 22 22 22 22 22 22 22 22 22 22 21 20 20 20 19 19 19 19 19 19 18 18 17 18 18 19 19 20 20 21 21 22 22 21 21 20 20 20 21 21 21 20 19 17 16 16 16 17 17 17 17 16 16 15 15 15 15 15 15 15 16 16 16
6 7 8 10 11 12 13 14 14 15 16 17 18 19 19 20 21 21 22 22 22 22 22 22 22 22 22 22 21 21 20 20 19 19 18 18 18 18 18 18 18 18 17 17 16 17 17 17 18 18 19 20 20 21 21 21 20 20 20 19 19 19 19 19 18 16 15 14 15 15 16 16 16 16 15 15 15 14 14 15 15 15 15 15 15
9 10 11 12 13 14 15 16 17 17 18 19 19 20 20 21 21 21 22 22 22 22 22 22 21 21 21 20 20 19 19 18 18 18 18 18 18 18 17 17 17 17 17 16 16 16 17 17 18 18 19 19 19 19 19 20 19 19 19 19 18 18 19 18 18 17 15 14 14 14 14 15 15 15 14 14 14 14 14 15 15 15 15 15 15
Wind_Direction
257 260 263 265 266 268 269 270 269 269 268 267 267 268 269 269 269 269 269 269 269 270 270 271 272 272 272 272 272 271 271 270 269 270 269 264 260 258 254 247 245 247 249 249 247 246 247 246 246 249 249 247 245 240 238 246 252 253 254 253 248 242 237 233 230 230 233 234 232 232 234 236 238 242 248 250 252 256 261 267 272 279 285 288 291
265 267 267 269 272 273 272 272 272 272 272 271 271 273 272 272 271 270 269 268 268 268 268 269 269 270 271 272 272 272 272 271 270 269 269 266 260 256 255 252 248 246 246 246 246 247 246 244 247 251 246 243 244 241 247 255 251 247 252 252 248 243 238 233 228 224 228 230 230 232 234 236 239 241 246 247 249 254 257 261 268 275 280 283 285
270 271 273 276 277 278 277 276 275 274 274 274 274 274 274 272 271 269 269 269 268 266 267 267 268 269 270 271 272 273 272 272 273 273 270 268 263 256 254 254 251 247 245 245 245 245 244 245 250 248 240 240 246 247 253 253 243 246 255 255 251 244 236 232 226 221 225 229 230 234 235 236 238 239 241 243 247 252 252 256 264 271 277 279 280
272 275 278 279 278 278 279 279 278 278 277 278 278 277 276 273 271 269 269 268 267 267 266 266 267 267 267 268 270 270 268 270 274 276 276 274 269 262 257 255 253 250 249 248 247 246 246 247 247 242 240 246 249 250 251 245 241 250 256 256 252 240 229 226 222 220 225 229 230 234 233 233 235 237 238 240 245 249 250 256 262 267 274 278 279
274 277 279 281 282 282 282 281 281 282 284 285 285 285 282 280 276 272 270 269 267 265 263 262 264 266 267 268 267 265 265 267 269 271 275 276 273 268 263 259 255 253 251 250 251 254 253 249 246 245 249 252 250 250 250 245 247 253 255 255 248 231 220 220 219 220 225 229 231 232 231 230 233 235 238 240 243 247 251 256 260 264 270 277 281
275 278 281 283 287 289 289 288 286 286 287 290 292 294 293 292 288 282 277 273 269 265 261 258 258 261 265 266 264 264 266 266 267 271 276 278 275 271 267 263 260 256 253 250 250 255 256 253 251 252 253 251 248 250 252 249 249 252 256 257 241 221 214 216 217 220 225 228 230 231 230 232 233 234 237 240 244 248 251 254 258 263 268 274 280
277 280 283 286 289 291 293 293 292 291 291 292 293 296 298 298 296 292 286 279 274 269 264 260 257 254 254 258 261 264 265 265 267 271 274 275 274 271 267 264 261 259 256 252 248 251 254 252 253 254 253 249 249 255 256 251 248 254 261 254 232 216 212 214 217 220 224 226 228 229 230 232 233 235 237 240 245 250 253 256 260 264 269 274 280
280 281 283 284 286 288 290 292 294 294 293 293 292 293 294 295 294 293 290 284 279 274 268 264 262 256 254 256 258 260 263 266 268 268 268 268 268 266 264 263 261 259 257 254 252 254 251 247 250 254 253 251 255 261 259 251 252 261 260 241 222 215 213 214 217 221 223 226 228 230 230 231 234 235 237 242 250 256 258 260 262 266 269 274 280
281 281 283 283 283 285 287 289 290 291 291 291 289 288 288 288 289 289 290 288 284 280 273 267 264 260 259 259 259 262 265 267 267 267 268 268 266 263 263 261 259 258 256 252 254 256 250 242 246 255 256 256 258 258 253 251 258 264 252 228 217 215 214 215 219 222 223 225 227 228 229 233 235 235 240 250 258 261 262 263 267 269 270 273 278
281 281 282 283 283 284 284 285 287 288 289 289 288 287 286 286 288 290 291 291 289 285 279 272 265 260 258 257 256 258 260 262 262 264 267 268 266 263 263 261 258 259 257 252 253 256 249 241 244 256 259 257 254 251 252 257 261 256 238 222 217 217 215 217 221 223 224 227 229 229 232 237 239 240 248 256 258 259 263 267 271 273 275 279 281
284 284 283 283 283 282 282 283 285 288 290 291 291 291 291 291 292 293 294 295 292 288 282 276 270 264 258 257 256 255 256 257 259 262 264 265 265 263 263 263 260 260 259 255 257 258 250 242 246 255 256 253 251 253 258 259 252 237 225 219 218 220 220 222 225 225 227 230 231 231 236 242 243 245 251 256 257 261 266 270 273 275 279 282 284
286 287 286 286 284 283 283 282 284 287 289 292 293 294 296 296 296 296 296 297 295 291 286 279 272 266 261 260 260 259 259 258 257 259 260 261 264 263 265 267 264 262 260 258 262 260 250 245 255 259 258 257 257 259 260 251 235 224 220 217 217 221 224 228 232 233 234 235 233 233 240 245 244 246 252 258 262 267 270 272 276 279 281 283 285
288 289 290 291 290 289 289 287 287 288 290 293 294 295 297 297 297 296 296 296 294 289 286 280 271 263 259 260 263 262 261 260 260 262 262 262 264 263 264 266 266 266 263 261 264 259 245 244 261 266 264 264 261 260 256 243 230 223 220 216 216 220 224 228 232 235 239 240 236 237 243 247 247 250 256 260 265 269 273 276 279 281 282 283 286
290 292 293 294 293 294 294 293 292 291 291 293 294 295 297 296 297 297 296 295 293 289 287 282 272 263 258 257 260 262 262 263 265 265 263 264 268 270 270 270 268 269 267 266 266 255 241 247 270 273 268 267 264 262 254 241 230 225 220 216 216 219 223 226 229 231 233 234 236 239 242 244 247 251 253 259 266 270 274 276 278 280 282 285 287
292 294 295 297 296 296 297 297 298 296 295 296 296 296 298 297 297 298 296 295 293 291 290 288 282 275 268 263 261 261 260 258 261 266 266 264 266 268 268 268 268 269 266 265 263 251 243 260 280 278 274 273 270 264 255 243 232 225 220 218 217 220 223 225 228 231 233 233 236 240 239 238 243 248 252 259 266 270 274 275 277 279 282 284 286
293 296 299 302 302 304 305 305 306 305 303 302 301 300 300 300 299 297 295 294 292 289 289 290 289 282 276 275 274 273 268 259 259 266 270 270 270 268 265 264 266 267 265 264 258 248 250 269 280 279 279 279 274 267 256 244 233 225 221 220 220 222 225 226 229 232 233 234 237 239 239 240 244 248 254 262 267 272 275 274 275 278 281 282 283
295 299 303 308 310 313 315 315 315 314 311 309 306 304 303 301 300 299 296 294 292 288 286 284 280 273 270 272 275 276 275 268 264 266 268 270 272 271 266 263 262 262 261 257 250 246 254 267 273 275 276 277 277 273 259 245 234 227 223 222 223 225 227 230 232 232 231 233 236 239 241 244 247 252 259 267 272 277 277 274 275 277 277 279 281
297 302 307 312 317 320 322 324 324 321 318 316 312 309 306 302 300 299 297 294 292 290 287 283 277 271 269 271 272 272 273 274 275 274 271 269 269 268 264 258 255 256 255 253 250 251 260 270 273 273 274 275 277 273 261 248 237 229 225 225 227 229 230 232 234 233 232 233 236 240 244 247 251 258 266 272 277 279 279 276 275 275 276 278 282
298 303 310 315 320 325 329 332 335 334 332 329 323 318 314 310 307 304 301 298 294 290 288 286 281 274 270 269 270 272 274 276 277 278 277 275 273 272 269 265 264 265 263 262 262 266 271 275 275 275 275 276 275 270 260 248 239 232 229 229 231 233 234 235 237 236 236 237 241 244 247 250 255 262 269 275 278 280 280 276 276 277 278 279 281
295 301 309 313 318 324 330 335 339 345 347 345 342 337 332 327 322 317 312 307 302 297 291 284 279 275 271 269 268 268 271 275 280 284 286 285 283 280 276 274 273 273 273 273 274 276 277 277 276 276 277 277 275 267 255 245 237 234 233 234 236 239 239 238 239 239 240 243 246 248 250 253 258 264 271 276 278 280 281 280 279 281 280 280 281
289 297 305 310 315 319 325 332 339 347 351 351 352 349 346 343 337 330 325 317 310 306 301 293 285 277 270 268 269 268 268 270 275 281 284 284 283 280 278 277 277 278 278 279 280 280 279 277 276 275 277 279 276 266 255 246 238 234 234 237 241 242 241 241 242 242 242 243 246 248 251 254 260 268 274 276 278 281 283 283 284 284 282 281 281
282 291 297 303 309 312 317 326 333 342 346 348 349 347 345 344 341 337 333 325 318 314 310 307 303 294 281 272 270 269 268 267 267 271 274 275 275 275 274 276 278 279 280 280 280 280 278 275 273 273 275 277 274 266 258 249 240 236 235 237 240 241 242 243 243 243 243 243 246 250 252 256 263 272 275 275 278 282 284 286 286 285 283 281 280
274 282 287 292 297 300 305 313 320 327 332 334 335 335 335 336 335 334 333 330 329 327 323 318 314 310 300 286 276 270 267 266 264 265 267 269 270 272 273 274 276 277 277 276 276 275 274 272 271 272 272 272 269 265 261 254 245 239 236 237 240 243 244 244 243 243 243 244 247 251 253 259 268 272 274 276 280 283 285 286 286 285 283 281 279
267 273 278 283 288 292 296 300 303 309 314 316 319 322 323 325 326 329 332 333 333 333 330 326 322 318 313 305 295 285 277 273 270 269 268 268 269 269 270 271 272 272 272 272 272 272 272 273 274 274 274 273 271 268 265 259 250 243 239 239 242 244 244 245 245 244 245 246 249 253 257 263 268 271 274 278 281 284 286 287 286 285 282 280 278
260 267 274 279 284 288 292 294 297 300 303 305 310 313 315 320 324 328 334 336 335 335 333 329 326 325 323 321 317 311 304 296 290 285 281 278 275 271 268 266 266 269 271 274 276 276 277 278 278 278 276 275 272 270 267 262 255 247 242 241 242 242 243 245 246 246 247 249 253 256 262 267 271 273 276 279 281 285 289 288 287 285 283 280 278
257 265 272 278 282 285 289 293 296 299 301 304 308 311 314 319 324 327 332 333 333 335 335 333 334 335 333 332 330 328 325 320 315 311 306 300 297 292 286 280 277 277 279 282 283 285 286 286 284 281 277 273 270 268 264 261 256 250 244 241 240 242 243 245 247 249 251 253 256 260 266 271 273 274 276 278 283 287 290 289 287 286 285 282 278
258 267 273 280 285 289 294 299 301 305 307 310 315 319 322 327 329 332 338 340 340 342 343 343 345 345 343 343 341 339 337 333 330 328 323 317 313 309 305 302 298 296 294 293 292 292 293 292 290 287 280 273 268 263 260 258 255 252 248 244 243 244 245 247 249 252 254 256 257 262 267 271 273 275 276 279 284 288 291 291 290 289 288 284 278
259 270 277 284 290 295 301 306 310 314 318 320 324 329 334 340 344 346 351 354 354 356 357 357 358 356 353 353 353 351 347 342 338 335 330 325 322 319 316 314 312 310 308 306 302 299 297 294 291 290 287 281 275 268 264 262 260 258 255 252 251 251 251 252 254 256 258 259 259 261 266 270 274 277 278 281 285 290 294 295 293 292 290 284 277
258 272 279 287 294 299 306 313 318 323 328 332 336 342 347 352 357 0 3 5 6 7 7 7 7 6 3 3 4 3 359 353 348 344 340 335 332 329 326 323 321 318 315 313 310 307 304 301 296 294 292 289 284 278 274 271 269 268 268 267 265 263 262 261 262 264 264 264 262 263 266 271 276 280 284 286 289 293 298 297 293 290 288 282 277
249 266 279 289 296 304 313 323 329 335 343 346 350 358 4 7 10 12 12 12 13 13 12 11 10 10 8 6 7 6 3 359 355 351 347 344 341 339 337 335 332 328 324 321 320 318 315 313 309 307 304 299 295 291 286 282 279 277 276 277 276 275 274 272 271 270 269 267 265 266 269 274 281 286 288 289 290 293 297 295 290 287 285 282 278
231 249 276 292 306 322 337 352 359 4 10 14 17 21 22 23 25 24 24 23 21 19 17 13 11 11 10 8 7 4 360 357 355 351 348 346 345 344 343 341 337 334 332 330 329 328 326 323 321 319 315 310 307 303 298 292 288 285 282 281 280 280 281 281 281 280 278 275 272 272 275 279 284 287 288 288 290 293 295 292 288 287 286 283 277
193 185 174 165 120 69 62 59 55 53 50 47 46 45 43 42 41 36 33 30 25 22 19 16 12 10 8 6 5 2 358 355 352 348 345 342 341 340 341 340 337 335 334 333 333 332 329 325 323 320 315 311 309 306 300 296 293 291 288 286 284 284 285 285 285 284 281 279 277 278 280 283 286 288 288 289 291 293 292 290 288 287 286 281 276
170 162 151 143 133 118 105 93 84 78 72 67 63 59 56 52 49 46 42 34 27 23 19 15 12 10 8 7 4 1 358 354 350 347 343 340 340 339 339 340 339 337 336 336 337 337 333 328 326 323 318 314 312 308 303 300 298 296 294 293 292 291 290 289 287 285 284 284 284 285 287 288 289 289 289 289 290 291 289 288 287 285 283 279 275
157 154 147 140 136 127 116 107 98 88 81 75 68 61 56 51 46 44 41 34 27 22 15 10 7 3 0 359 356 353 351 347 344 342 339 337 335 334 333 333 333 332 331 331 331 330 327 324 323 320 317 314 312 309 306 304 302 300 299 298 297 296 294 292 290 289 289 289 289 289 289 289 289 289 289 289 289 289 288 287 286 284 281 279 276
150 147 142 138 135 130 122 117 109 99 90 83 72 59 49 40 32 26 20 13 9 5 0 358 356 353 352 351 347 344 343 341 339 338 335 333 331 330 328 327 326 325 324 322 319 317 315 312 311 309 307 305 304 303 302 301 300 299 299 298 297 296 296 294 293 293 293 292 291 291 291 290 289 289 290 290 289 288 288 287 286 285 282 279 276
144 141 137 135 134 131 128 125 121 115 109 97 80 61 44 29 16 7 2 359 356 355 354 352 350 349 349 349 346 343 341 339 338 337 334 331 330 327 325 324 323 321 319 316 313 310 309 307 305 303 301 300 300 299 299 299 299 299 300 300 300 299 299 298 298 298 297 296 295 295 294 293 293 292 292 291 289 289 288 287 286 284 282 278 275
143 141 139 136 136 135 134 133 131 126 121 110 94 74 51 31 17 7 3 359 356 353 351 349 346 343 341 340 339 338 337 335 334 333 331 328 326 324 322 321 319 318 315 312 309 306 304 302 300 299 298 297 297 296 297 297 297 298 299 299 299 299 299 299 298 297 297 296 296 296 295 294 294 294 292 291 291 290 289 287 285 283 280 277 272
145 145 145 142 141 140 136 133 130 126 119 110 101 87 66 45 28 13 3 356 350 345 341 339 337 334 332 332 333 333 332 331 330 328 326 325 323 321 319 318 316 314 311 309 306 303 301 300 299 298 297 297 297 297 297 297 297 298 298 298 298 297 297 297 296 296 296 296 295 295 295 294 293 293 292 291 291 291 289 287 284 281 278 274 270
150 150 148 146 143 141 136 131 128 124 119 112 107 96 75 52 26 3 350 342 338 335 333 332 331 330 329 329 328 327 326 325 325 324 323 322 321 320 318 316 314 312 310 307 305 303 302 300 300 298 297 297 296 296 295 295 294 294 294 294 294 294 294 294 295 295 295 295 295 295 294 293 293 293 292 291 291 291 289 286 283 280 278 274 271
151 150 148 147 146 144 142 139 134 129 122 113 102 85 51 20 355 341 336 333 331 330 329 328 327 326 325 324 323 322 321 320 320 319 318 317 316 315 314 313 311 310 308 307 305 303 302 300 299 298 296 296 295 294 294 293 292 292 291 290 291 293 294 295 296 296 296 296 296 296 295 294 293 292 291 291 291 290 288 286 283 280 277 275 272
150 150 149 149 150 149 147 144 137 132 123 90 49 11 352 343 335 331 329 328 327 326 324 323 321 319 318 317 316 315 314 313 313 312 311 310 310 309 308 307 306 305 305 304 303 302 301 300 299 298 297 297 296 295 294 294 293 292 292 291 292 293 294 295 295 295 295 296 297 297 296 295 293 291 289 289 289 287 285 283 280 277 275 273 272
149 151 151 151 153 155 154 150 144 135 348 336 334 331 329 327 325 325 324 321 320 318 315 314 313 311 310 310 309 309 309 309 309 309 309 308 307 306 306 305 304 304 303 303 302 301 300 299 298 297 297 296 297 296 295 295 294 294 294 294 294 293 294 294 293 293 294 295 296 296 296 294 291 288 286 286 285 285 283 280 277 275 274 273 272
150 153 154 155 159 161 165 197 303 318 319 320 320 321 322 321 319 319 317 314 312 311 309 309 308 307 307 308 308 309 310 310 310 311 310 310 309 309 308 307 306 304 303 302 301 300 299 297 296 296 295 295 295 294 294 294 295 295 295 295 295 294 293 293 293 293 294 294 295 295 295 293 290 286 285 284 283 283 282 279 275 274 273 272 271
151 152 155 160 169 214 294 308 315 317 316 316 316 316 316 316 315 314 313 312 311 310 310 309 309 309 309 310 310 311 312 313 313 313 313 313 312 311 310 308 307 305 303 302 301 299 297 296 295 295 294 294 293 293 293 293 293 294 295 295 294 294 294 294 294 293 294 294 295 295 295 293 289 286 285 284 283 281 280 278 276 274 273 271 271
150 155 167 205 272 300 306 310 314 314 313 314 315 314 314 315 314 313 313 313 313 312 312 312 312 312 312 312 313 313 314 315 315 315 315 314 314 313 312 311 310 309 307 306 305 303 301 300 299 298 298 298 297 296 294 293 292 292 293 295 296 297 297 296 296 295 295 295 296 296 295 292 290 288 286 284 282 278 276 274 273 272 271 271 271
164 189 249 287 297 304 308 309 310 311 311 312 313 313 314 315 315 314 315 314 314 314 313 312 312 313 313 313 313 314 314 315 315 315 316 316 315 315 314 313 313 313 312 311 310 308 306 304 304 303 303 303 302 300 297 295 295 296 297 298 298 298 298 298 297 297 298 298 297 296 295 292 291 289 287 283 279 274 271 270 270 269 270 271 273
225 273 296 304 305 308 308 307 308 310 311 311 312 313 314 314 314 314 314 314 313 313 312 312 312 312 312 312 313 313 313 314 315 315 316 316 315 315 315 315 314 314 314 313 311 309 308 307 307 307 306 305 304 303 301 301 301 301 302 301 300 299 298 298 298 299 300 300 299 297 295 293 290 288 285 281 277 274 271 270 270 270 271 272 274
292 301 307 310 309 308 308 308 309 310 311 311 312 312 313 313 314 313 313 312 312 311 311 310 310 310 310 310 311 311 311 312 312 313 314 314 313 313 314 314 315 315 315 315 314 312 311 311 311 310 309 309 308 307 307 307 306 306 305 304 303 301 300 299 299 299 301 302 300 298 295 291 287 284 281 277 276 275 274 273 273 273 273 275 275
308 311 312 312 311 311 310 310 311 311 311 312 312 312 312 313 313 312 312 311 310 309 309 308 308 308 308 308 308 308 308 308 309 309 310 310 311 313 314 314 316 317 318 319 318 316 316 316 315 314 314 313 312 312 312 311 310 309 306 304 303 302 301 300 299 298 299 300 299 296 292 288 285 282 279 276 274 273 274 274 274 275 276 276 275
312 313 313 312 312 312 312 311 311 311 311 311 311 311 311 311 310 310 309 309 308 307 306 306 305 305 305 304 304 304 304 304 305 306 308 310 311 314 315 316 317 317 318 319 320 319 319 319 319 317 315 314 313 313 313 313 312 311 307 305 304 303 301 300 298 297 296 296 295 293 290 288 284 281 278 275 273 272 273 274 276 277 277 276 274
308 310 311 311 311 311 311 311 310 309 309 309 309 308 308 307 307 307 306 305 304 303 302 302 302 301 301 300 300 300 300 302 304 306 308 310 311 313 313 314 314 315 316 317 319 319 319 319 318 316 314 313 312 312 312 312 312 310 308 306 305 303 301 300 298 296 293 291 291 290 289 286 283 280 277 274 272 271 272 273 275 275 275 274 272